Location: Unspecified
(0.0000°N, 0.0000°E)
Time: 21:41:06
(UTC+00:00)

Tiros 1 - Pass Details

Date: 23 October 2021
Orbit: 630 x 664 km, 48.4° (Epoch: 04 December)

Event Time Altitude Azimuth Distance (km) Brightness Sun altitude
Rises 08:23:47 0° 249° (WSW) 2,987 10.2 38.9°
Reaches altitude 10° 08:26:50 10° 268° (W) 2,073 9.4 39.6°
Maximum altitude 08:30:00 18° 310° (NW) 1,627 9.0 40.4°
Drops below altitude 10° 08:33:10 10° 352° (N) 2,065 9.7 41.2°
Sets 08:36:12 0° 11° (N) 2,970 10.5 41.9°
